#�ϑ�����,���ϕ���,���ϕ���,�ő啗��,�ő啗����������,�ő�u�ԕ���,�ő�u�ԕ�����������
#(�N����),(m/s)   ,(16����),(m/s)   ,(16����)        ,(m/s)       ,(16����)            
2013/12/10 0:01,1.5,3,1.6,15,2.5,3
2013/12/10 0:02,1.5,3,1.5,16,0.3,9
2013/12/10 0:03,1.4,3,1.5,1,0.1,9
2013/12/10 0:04,1.3,4,1.4,1,0.1,9
2013/12/10 0:05,1.1,5,1.3,1,0.6,10
2013/12/10 0:06,1.1,7,1.1,2,3.1,10
2013/12/10 0:07,1.2,8,1.2,2,3.5,10
2013/12/10 0:08,1,9,1.2,2,2.1,10
2013/12/10 0:09,0.8,9,1,2,0.9,10
2013/12/10 0:10,0.7,9,0.8,2,0.1,9
2013/12/10 0:11,0.6,9,0.7,3,0.5,1
2013/12/10 0:12,0.7,9,0.7,3,1,1
2013/12/10 0:13,0.7,9,0.7,3,1,2
2013/12/10 0:14,0.7,8,0.7,4,0.9,4
2013/12/10 0:15,0.8,3,0.8,7,2,2
2013/12/10 0:16,0.7,3,0.9,7,2,2
2013/12/10 0:17,0.6,2,0.7,8,1.8,16
2013/12/10 0:18,0.5,2,0.6,9,1.9,3
2013/12/10 0:19,0.7,2,0.7,3,1.8,3
2013/12/10 0:20,0.8,2,0.8,3,1.6,3
2013/12/10 0:21,0.9,2,0.9,3,2,1
2013/12/10 0:22,1,2,1,2,2.7,1
2013/12/10 0:23,1.1,2,1.1,2,2.2,1
2013/12/10 0:24,1.3,2,1.3,2,2.2,2
2013/12/10 0:25,1.3,2,1.3,2,2.1,2
2013/12/10 0:26,1.4,2,1.4,2,2.1,2
2013/12/10 0:27,1.4,2,1.4,2,2.2,3
2013/12/10 0:28,1.4,2,1.5,2,2,3
2013/12/10 0:29,1.5,2,1.5,2,2.4,3
2013/12/10 0:30,1.5,2,1.5,2,2.2,3
2013/12/10 0:31,1.4,2,1.5,2,1.4,2
2013/12/10 0:32,1.4,2,1.4,2,2.4,3
2013/12/10 0:33,1.3,2,1.4,2,2,4
2013/12/10 0:34,1.3,2,1.3,2,2,3
2013/12/10 0:35,1.2,2,1.3,2,1.3,2
2013/12/10 0:36,1.1,2,1.2,2,1.3,4
2013/12/10 0:37,1.1,2,1.1,2,1.4,1
2013/12/10 0:38,1,2,1.1,2,0.9,1
2013/12/10 0:39,0.9,2,1,2,1.1,1
2013/12/10 0:40,0.9,2,0.9,2,2.1,2
2013/12/10 0:41,0.9,2,0.9,2,1.5,2
2013/12/10 0:42,0.8,2,0.9,2,1.1,3
2013/12/10 0:43,0.8,2,0.8,2,1.5,1
2013/12/10 0:44,0.8,2,0.8,2,1.5,2
2013/12/10 0:45,0.8,2,0.8,2,1.4,2
2013/12/10 0:46,0.8,2,0.8,2,1.4,2
2013/12/10 0:47,0.8,2,0.8,2,1.9,4
2013/12/10 0:48,0.9,2,0.9,2,1,5
2013/12/10 0:49,0.8,2,0.9,2,0.6,3
2013/12/10 0:50,0.7,3,0.8,2,0.6,4
2013/12/10 0:51,0.7,3,0.7,2,0.8,4
2013/12/10 0:52,0.6,3,0.7,2,0.6,4
2013/12/10 0:53,0.6,3,0.6,2,1,2
2013/12/10 0:54,0.5,3,0.6,2,0.1,1
2013/12/10 0:55,0.5,4,0.5,2,1.6,3
2013/12/10 0:56,0.6,4,0.6,2,2,2
2013/12/10 0:57,0.6,3,0.6,2,1.5,2
2013/12/10 0:58,0.6,3,0.6,2,1.9,1
2013/12/10 0:59,0.7,3,0.7,2,2,1
2013/12/10 1:00,0.8,3,0.8,3,2,1
2013/12/10 1:01,0.9,2,0.9,2,2.1,2
2013/12/10 1:02,1,2,1,2,1.9,1
2013/12/10 1:03,1.1,2,1.1,2,1.6,2
2013/12/10 1:04,1.1,2,1.1,2,1.5,1
2013/12/10 1:05,1.2,2,1.2,2,1.6,2
2013/12/10 1:06,1.2,2,1.2,2,2.5,1
2013/12/10 1:07,1.2,2,1.2,2,2.2,1
2013/12/10 1:08,1.2,2,1.2,2,1.8,2
2013/12/10 1:09,1.2,2,1.2,2,1.8,2
2013/12/10 1:10,1.2,2,1.2,2,2.2,2
2013/12/10 1:11,1.2,2,1.2,2,1.9,1
2013/12/10 1:12,1.2,2,1.2,2,1.6,2
2013/12/10 1:13,1.2,2,1.2,2,1.4,3
2013/12/10 1:14,1.2,2,1.2,2,2,3
2013/12/10 1:15,1.3,2,1.3,2,2,1
2013/12/10 1:16,1.2,2,1.3,2,1.6,3
2013/12/10 1:17,1.2,2,1.2,2,1.5,4
2013/12/10 1:18,1.2,2,1.2,2,2.5,3
2013/12/10 1:19,1.2,2,1.2,2,2,2
2013/12/10 1:20,1.1,2,1.2,2,1.5,3
2013/12/10 1:21,1.2,3,1.2,2,2.1,4
2013/12/10 1:22,1.2,2,1.2,2,2,4
2013/12/10 1:23,1.2,2,1.2,2,2,1
2013/12/10 1:24,1.2,2,1.2,2,1.4,1
2013/12/10 1:25,1.2,2,1.2,2,1.4,16
2013/12/10 1:26,1.2,2,1.2,2,2,1
2013/12/10 1:27,1.3,2,1.3,2,2.1,1
2013/12/10 1:28,1.3,1,1.3,2,2.6,1
2013/12/10 1:29,1.3,1,1.3,2,2,2
2013/12/10 1:30,1.3,1,1.3,2,1.8,3
2013/12/10 1:31,1.3,1,1.3,2,2.5,1
2013/12/10 1:32,1.2,1,1.3,2,2.5,1
2013/12/10 1:33,1.3,1,1.3,2,2.1,1
2013/12/10 1:34,1.3,1,1.3,2,1.9,1
2013/12/10 1:35,1.4,1,1.4,1,2.2,1
2013/12/10 1:36,1.4,1,1.4,1,2.4,16
2013/12/10 1:37,1.4,1,1.4,1,2,16
2013/12/10 1:38,1.4,1,1.4,1,1.9,16
2013/12/10 1:39,1.4,1,1.4,1,2.5,5
2013/12/10 1:40,1.4,1,1.4,1,2.2,5
2013/12/10 1:41,1.4,2,1.5,1,1.6,3
2013/12/10 1:42,1.4,2,1.4,1,1.1,1
2013/12/10 1:43,1.2,2,1.4,1,0.6,2
2013/12/10 1:44,1.1,2,1.2,1,0.8,2
2013/12/10 1:45,1,2,1.1,1,0.9,2
2013/12/10 1:46,1,2,1,1,1.4,3
2013/12/10 1:47,0.9,2,1,1,1.1,2
2013/12/10 1:48,0.8,2,0.9,1,1.3,4
2013/12/10 1:49,0.7,2,0.8,1,0.9,2
2013/12/10 1:50,0.6,2,0.7,1,0.8,4
2013/12/10 1:51,0.5,2,0.6,2,0.3,6
2013/12/10 1:52,0.4,3,0.5,2,0.3,3
2013/12/10 1:53,0.4,3,0.4,2,0.9,3
2013/12/10 1:54,0.5,3,0.5,2,1.1,3
2013/12/10 1:55,0.4,3,0.5,2,0.5,1
2013/12/10 1:56,0.3,3,0.4,2,0.1,6
2013/12/10 1:57,0.3,3,0.3,2,0.1,1
2013/12/10 1:58,0.2,3,0.3,2,1,16
2013/12/10 1:59,0.3,3,0.3,2,1.5,1
2013/12/10 2:00,0.4,3,0.4,2,2,2
2013/12/10 2:01,0.5,2,0.5,2,1.5,15
2013/12/10 2:02,0.5,2,0.5,3,1.3,2
2013/12/10 2:03,0.6,2,0.6,2,1.6,16
2013/12/10 2:04,0.7,2,0.7,2,1.8,1
2013/12/10 2:05,0.7,1,0.7,2,1.5,16
2013/12/10 2:06,0.8,1,0.8,1,1.1,1
2013/12/10 2:07,0.9,1,0.9,1,1.9,1
2013/12/10 2:08,1,1,1,1,2.2,16
2013/12/10 2:09,1.1,1,1.1,1,1.8,1
2013/12/10 2:10,1.1,1,1.1,1,2.2,3
2013/12/10 2:11,1.2,1,1.2,1,2.4,1
2013/12/10 2:12,1.2,1,1.2,1,2,2
2013/12/10 2:13,1.3,1,1.3,1,2.4,2
2013/12/10 2:14,1.3,1,1.3,1,2.5,1
2013/12/10 2:15,1.4,1,1.4,1,1.8,1
2013/12/10 2:16,1.5,1,1.5,1,2.4,1
2013/12/10 2:17,1.5,1,1.5,1,2.1,1
2013/12/10 2:18,1.4,1,1.5,1,2.4,16
2013/12/10 2:19,1.4,1,1.4,1,2.1,15
2013/12/10 2:20,1.3,1,1.4,1,1.6,1
2013/12/10 2:21,1.3,1,1.3,1,2.5,15
2013/12/10 2:22,1.3,1,1.3,1,2.4,1
2013/12/10 2:23,1.3,1,1.3,1,2.5,16
2013/12/10 2:24,1.3,1,1.3,1,2.7,15
2013/12/10 2:25,1.4,16,1.4,1,2.9,16
2013/12/10 2:26,1.4,16,1.4,1,2.7,16
2013/12/10 2:27,1.5,16,1.5,1,2.7,16
2013/12/10 2:28,1.5,16,1.6,16,2.1,16
2013/12/10 2:29,1.6,16,1.6,16,2,1
2013/12/10 2:30,1.7,16,1.7,16,2.5,1
2013/12/10 2:31,1.7,16,1.7,16,2.1,1
2013/12/10 2:32,1.6,16,1.7,16,1.9,1
2013/12/10 2:33,1.6,16,1.6,16,1.9,2
2013/12/10 2:34,1.6,1,1.6,16,2.1,2
2013/12/10 2:35,1.4,1,1.5,16,1.1,3
2013/12/10 2:36,1.2,1,1.4,16,0.8,1
2013/12/10 2:37,1.1,1,1.2,16,1.3,2
2013/12/10 2:38,1,1,1.1,16,1.1,16
2013/12/10 2:39,1,1,1,16,1.3,1
2013/12/10 2:40,0.9,1,1,16,1.3,1
2013/12/10 2:41,0.8,1,0.9,16,1.1,1
2013/12/10 2:42,0.8,1,0.8,16,1.4,2
2013/12/10 2:43,0.8,2,0.8,16,1.6,2
2013/12/10 2:44,0.8,2,0.8,1,2.2,3
2013/12/10 2:45,0.9,2,0.9,1,2.1,1
2013/12/10 2:46,1,2,1,1,1.8,2
2013/12/10 2:47,1.1,2,1.1,1,2.1,3
2013/12/10 2:48,1.2,2,1.2,2,2.5,3
2013/12/10 2:49,1.4,2,1.4,2,3.1,3
2013/12/10 2:50,1.6,2,1.6,2,3,3
2013/12/10 2:51,1.8,3,1.8,3,3,3
2013/12/10 2:52,1.9,3,1.9,3,3.1,3
2013/12/10 2:53,2,3,2,3,2.9,3
2013/12/10 2:54,2.1,3,2.1,3,2.7,3
2013/12/10 2:55,2.1,3,2.1,3,2.5,4
2013/12/10 2:56,2.2,3,2.2,3,3.1,4
2013/12/10 2:57,2.2,3,2.2,3,3.3,5
2013/12/10 2:58,2.2,3,2.2,3,2.2,4
2013/12/10 2:59,2.1,3,2.2,3,1.9,4
2013/12/10 3:00,2,3,2.1,3,2.6,4
2013/12/10 3:01,2,3,2,3,2.6,3
2013/12/10 3:02,1.9,3,2,3,2.6,4
2013/12/10 3:03,1.9,3,1.9,3,2.9,3
2013/12/10 3:04,1.8,3,1.9,3,2.5,2
2013/12/10 3:05,1.9,3,1.9,3,3.9,3
2013/12/10 3:06,1.9,3,1.9,3,3.7,4
2013/12/10 3:07,1.8,3,1.8,3,2,4
2013/12/10 3:08,1.8,3,1.8,3,3.1,3
2013/12/10 3:09,1.8,3,1.8,3,2.2,2
2013/12/10 3:10,1.8,3,1.8,3,3.2,2
2013/12/10 3:11,1.8,2,1.8,4,3.2,3
2013/12/10 3:12,1.9,2,1.9,3,3.9,3
2013/12/10 3:13,2,2,2,2,3.8,3
2013/12/10 3:14,2.1,2,2.1,2,3.9,3
2013/12/10 3:15,2.2,2,2.2,2,3.1,3
2013/12/10 3:16,2.2,2,2.2,2,2.6,2
2013/12/10 3:17,2.2,2,2.2,2,2.1,2
2013/12/10 3:18,2,2,2.2,2,1.1,16
2013/12/10 3:19,1.9,2,2,2,0.5,15
2013/12/10 3:20,1.8,2,1.9,2,2.2,3
2013/12/10 3:21,1.7,2,1.8,2,2.1,1
2013/12/10 3:22,1.6,2,1.7,2,2.2,2
2013/12/10 3:23,1.5,2,1.6,2,2.4,3
2013/12/10 3:24,1.3,2,1.5,2,1.8,3
2013/12/10 3:25,1.2,2,1.3,2,2,3
2013/12/10 3:26,1.1,2,1.1,2,1.9,3
2013/12/10 3:27,1.1,2,1.1,2,1.4,3
2013/12/10 3:28,1.2,2,1.2,2,1.9,2
2013/12/10 3:29,1.3,2,1.3,2,1.6,2
2013/12/10 3:30,1.3,2,1.3,2,2.1,1
2013/12/10 3:31,1.3,2,1.3,2,1.9,16
2013/12/10 3:32,1.2,2,1.3,2,1.8,15
2013/12/10 3:33,1.2,2,1.2,2,2.9,16
2013/12/10 3:34,1.4,1,1.4,1,3.3,16
2013/12/10 3:35,1.5,1,1.5,1,3.8,16
2013/12/10 3:36,1.6,1,1.6,1,3.9,16
2013/12/10 3:37,1.8,1,1.8,1,3.5,16
2013/12/10 3:38,1.9,16,1.9,16,3,15
2013/12/10 3:39,2.1,16,2.1,16,3,1
2013/12/10 3:40,2.1,16,2.1,16,2.5,16
2013/12/10 3:41,2.2,16,2.2,16,2.6,15
2013/12/10 3:42,2.2,16,2.2,16,1.8,15
2013/12/10 3:43,2.1,16,2.2,16,1.6,1
2013/12/10 3:44,1.9,16,2.1,16,1.6,1
2013/12/10 3:45,1.7,16,1.9,16,0.8,2
2013/12/10 3:46,1.5,16,1.7,16,1.1,3
2013/12/10 3:47,1.4,1,1.5,16,1.3,3
2013/12/10 3:48,1.2,1,1.4,16,1.4,2
2013/12/10 3:49,1.1,1,1.2,16,1.6,1
2013/12/10 3:50,1.1,1,1.1,16,1.9,1
2013/12/10 3:51,1.1,1,1.1,16,2,16
2013/12/10 3:52,1.1,1,1.1,16,2.5,15
2013/12/10 3:53,1.2,1,1.2,16,2.4,16
2013/12/10 3:54,1.3,1,1.3,16,2.4,1
2013/12/10 3:55,1.5,1,1.5,16,2.2,16
2013/12/10 3:56,1.5,1,1.5,16,1.6,16
2013/12/10 3:57,1.5,16,1.5,1,2.1,14
2013/12/10 3:58,1.7,16,1.7,16,3.6,16
2013/12/10 3:59,1.9,16,1.9,16,5.2,16
2013/12/10 4:00,2.3,15,2.3,15,8.5,16
2013/12/10 4:01,2.9,15,2.9,15,10.5,16
2013/12/10 4:02,3.1,15,3.1,15,10.9,16
2013/12/10 4:03,3,15,3.1,15,3.6,10
2013/12/10 4:04,3.1,15,3.1,15,5.5,13
2013/12/10 4:05,3.2,15,3.2,15,5.7,16
2013/12/10 4:06,3.5,15,3.5,15,11,15
2013/12/10 4:07,3.8,15,3.8,15,7.2,13
2013/12/10 4:08,3.8,15,3.8,15,5.2,12
2013/12/10 4:09,3.7,15,3.8,15,5.7,1
2013/12/10 4:10,3.3,14,3.7,15,5.7,1
2013/12/10 4:11,2.8,14,3.2,15,5.4,15
2013/12/10 4:12,2.7,14,2.8,15,5,13
2013/12/10 4:13,2.8,14,2.8,15,4.7,11
2013/12/10 4:14,2.7,14,2.8,15,4.3,13
2013/12/10 4:15,2.6,14,2.7,15,3.8,16
2013/12/10 4:16,2.3,14,2.6,15,1,2
2013/12/10 4:17,2.1,14,2.2,15,4.5,13
2013/12/10 4:18,2,14,2.1,15,2.5,12
2013/12/10 4:19,1.9,13,2,15,3.3,13
2013/12/10 4:20,2,13,2,14,4.7,14
2013/12/10 4:21,2.1,13,2.1,14,3.6,13
2013/12/10 4:22,1.9,13,2,14,1.6,14
2013/12/10 4:23,1.7,13,1.8,14,2.2,12
2013/12/10 4:24,1.7,13,1.7,14,1.9,13
2013/12/10 4:25,1.6,12,1.7,14,1.8,13
2013/12/10 4:26,1.7,12,1.7,14,2.7,9
2013/12/10 4:27,1.7,12,1.7,14,2.4,9
2013/12/10 4:28,1.7,12,1.7,13,3.6,11
2013/12/10 4:29,1.9,11,1.9,13,3.8,11
2013/12/10 4:30,1.7,11,1.9,13,2.6,12
2013/12/10 4:31,1.6,11,1.7,13,1.3,12
2013/12/10 4:32,1.6,11,1.6,11,2.6,13
2013/12/10 4:33,1.6,11,1.6,11,1.8,11
2013/12/10 4:34,1.7,11,1.7,11,3.7,11
2013/12/10 4:35,1.8,11,1.8,11,2.7,9
2013/12/10 4:36,1.7,11,1.8,11,2.1,13
2013/12/10 4:37,1.7,12,1.7,11,3,12
2013/12/10 4:38,1.7,12,1.7,11,2.9,15
2013/12/10 4:39,1.5,12,1.6,11,3.1,11
2013/12/10 4:40,1.5,12,1.5,11,2.7,12
2013/12/10 4:41,1.8,12,1.8,11,4.2,12
2013/12/10 4:42,1.8,12,1.8,11,2.6,13
2013/12/10 4:43,1.9,12,1.9,12,2.2,13
2013/12/10 4:44,1.8,12,1.9,12,2.5,11
2013/12/10 4:45,1.7,12,1.8,12,1.8,12
2013/12/10 4:46,1.8,12,1.8,12,1.5,9
2013/12/10 4:47,1.7,12,1.8,12,2.5,9
2013/12/10 4:48,1.8,12,1.8,12,4.5,11
2013/12/10 4:49,1.8,12,1.8,12,2.5,10
2013/12/10 4:50,1.7,12,1.7,12,2.6,13
2013/12/10 4:51,1.6,12,1.7,12,4.7,14
2013/12/10 4:52,1.7,12,1.7,12,6.5,12
2013/12/10 4:53,1.9,12,1.9,12,5.6,12
2013/12/10 4:54,1.9,12,1.9,12,4.3,13
2013/12/10 4:55,2.1,12,2.1,12,5.8,13
2013/12/10 4:56,2.2,13,2.2,12,4.9,13
2013/12/10 4:57,2.4,13,2.4,13,6.2,14
2013/12/10 4:58,2.3,13,2.4,13,3.8,11
2013/12/10 4:59,2.3,13,2.3,13,3.1,13
2013/12/10 5:00,2.5,13,2.5,13,5.6,8
2013/12/10 5:01,2.5,13,2.6,13,4.8,11
2013/12/10 5:02,2.4,13,2.5,13,5.6,10
2013/12/10 5:03,2.4,12,2.4,13,4.3,12
2013/12/10 5:04,2.4,12,2.4,13,5.1,12
2013/12/10 5:05,2.3,12,2.4,13,6.2,12
2013/12/10 5:06,2.4,12,2.4,13,6.4,12
2013/12/10 5:07,2.3,11,2.3,13,3.3,10
2013/12/10 5:08,2.3,11,2.3,13,4.1,10
2013/12/10 5:09,2.3,11,2.4,13,2.9,12
2013/12/10 5:10,2.2,12,2.4,13,2.1,8
2013/12/10 5:11,2,12,2.2,13,2.9,10
2013/12/10 5:12,1.9,12,2,13,1.1,15
2013/12/10 5:13,1.9,12,1.9,12,4.8,13
2013/12/10 5:14,2.2,12,2.2,12,7.2,13
2013/12/10 5:15,2.2,12,2.2,12,3.9,12
2013/12/10 5:16,2.1,12,2.1,11,2.2,13
2013/12/10 5:17,2.1,12,2.1,11,3.2,14
2013/12/10 5:18,2.1,12,2.1,11,4.1,10
2013/12/10 5:19,2.2,12,2.2,11,4.3,11
2013/12/10 5:20,2.1,12,2.2,11,2.6,8
2013/12/10 5:21,2.3,12,2.3,12,3.7,13
2013/12/10 5:22,2.4,12,2.4,12,3.1,16
2013/12/10 5:23,2.3,13,2.4,12,2.4,14
2013/12/10 5:24,2,13,2.3,12,3.7,16
2013/12/10 5:25,2,13,2,12,6.1,16
2013/12/10 5:26,2.3,14,2.3,12,6.9,15
2013/12/10 5:27,2.5,14,2.5,14,6.5,15
2013/12/10 5:28,2.6,14,2.6,14,5.7,16
2013/12/10 5:29,2.7,15,2.7,14,4.9,15
2013/12/10 5:30,3,15,3,15,5.8,15
2013/12/10 5:31,3,15,3,15,4.2,16
2013/12/10 5:32,3,15,3,15,3.1,14
2013/12/10 5:33,3.2,15,3.2,15,4.3,15
2013/12/10 5:34,3.3,14,3.3,14,4.3,13
2013/12/10 5:35,3.3,14,3.4,14,4.4,15
2013/12/10 5:36,3.2,14,3.3,14,6.1,16
2013/12/10 5:37,2.9,14,3.2,14,3,15
2013/12/10 5:38,2.7,14,2.9,14,3,2
2013/12/10 5:39,2.6,14,2.7,14,3.5,15
2013/12/10 5:40,2.7,14,2.7,14,7.7,15
2013/12/10 5:41,2.7,14,2.8,14,6.8,16
2013/12/10 5:42,2.7,15,2.7,14,4.7,12
2013/12/10 5:43,2.8,15,2.8,14,4.3,14
2013/12/10 5:44,2.7,15,2.8,14,3.6,1
2013/12/10 5:45,2.5,15,2.7,14,4.2,14
2013/12/10 5:46,2.4,15,2.5,14,3.7,14
2013/12/10 5:47,2.5,15,2.5,14,4.3,16
2013/12/10 5:48,2.6,15,2.6,14,6.1,15
2013/12/10 5:49,2.6,15,2.6,14,5.8,13
2013/12/10 5:50,2.7,14,2.7,14,7.8,13
2013/12/10 5:51,2.7,14,2.7,15,5.8,11
2013/12/10 5:52,2.6,14,2.7,15,3.2,13
2013/12/10 5:53,2.5,14,2.6,15,3.7,12
2013/12/10 5:54,2.5,13,2.5,15,4.2,13
2013/12/10 5:55,2.7,13,2.7,15,3.8,13
2013/12/10 5:56,2.7,13,2.7,15,3.6,13
2013/12/10 5:57,2.9,13,2.9,13,5.6,12
2013/12/10 5:58,2.8,12,2.9,13,4.9,10
2013/12/10 5:59,2.9,13,2.9,13,5.8,12
2013/12/10 6:00,2.7,13,2.9,13,6.5,13
2013/12/10 6:01,2.7,13,2.7,13,3.9,12
2013/12/10 6:02,2.8,13,2.8,13,4.8,13
2013/12/10 6:03,2.8,13,2.8,13,3.7,12
2013/12/10 6:04,2.8,13,2.8,13,6.9,12
2013/12/10 6:05,3,13,3,13,6.8,11
2013/12/10 6:06,3,13,3,13,3.7,12
2013/12/10 6:07,2.8,13,3,13,5.5,13
2013/12/10 6:08,2.9,13,2.9,13,7,13
2013/12/10 6:09,2.8,13,2.9,13,7.1,13
2013/12/10 6:10,3,13,3,13,8.4,11
2013/12/10 6:11,3.1,13,3.1,13,5.4,12
2013/12/10 6:12,3,12,3.1,13,5.5,12
2013/12/10 6:13,3.1,12,3.1,13,4.7,11
2013/12/10 6:14,3.1,12,3.2,12,7.4,9
2013/12/10 6:15,3.1,12,3.1,12,6.7,11
2013/12/10 6:16,3.1,12,3.2,12,5,13
2013/12/10 6:17,3.4,12,3.4,12,8.7,14
2013/12/10 6:18,3.5,12,3.5,12,8.4,11
2013/12/10 6:19,3.7,12,3.8,12,8.9,12
2013/12/10 6:20,3.5,12,3.7,12,6.3,11
2013/12/10 6:21,3.4,11,3.5,12,6.3,13
2013/12/10 6:22,3.3,11,3.4,12,7.9,8
2013/12/10 6:23,3.5,12,3.5,12,11.4,12
2013/12/10 6:24,3.8,12,3.8,12,10.2,13
2013/12/10 6:25,4.1,12,4.1,12,11.7,13
2013/12/10 6:26,4.5,12,4.5,12,13.8,12
2013/12/10 6:27,4.5,12,4.6,12,9,13
2013/12/10 6:28,4.2,12,4.4,12,3.3,12
2013/12/10 6:29,4.2,12,4.2,12,7.8,12
2013/12/10 6:30,4.4,12,4.4,12,7.5,12
2013/12/10 6:31,4.6,12,4.6,12,7.7,13
2013/12/10 6:32,4.7,12,4.7,12,6.2,15
2013/12/10 6:33,4.6,12,4.8,12,5.5,9
2013/12/10 6:34,4.4,12,4.5,12,6.5,12
2013/12/10 6:35,4,12,4.3,12,6.4,13
2013/12/10 6:36,3.6,13,4,12,5.4,14
2013/12/10 6:37,3.5,13,3.6,12,5.5,12
2013/12/10 6:38,3.5,13,3.5,12,3.6,1
2013/12/10 6:39,3.2,13,3.5,12,5.4,12
2013/12/10 6:40,3.1,13,3.2,12,5.5,15
2013/12/10 6:41,2.9,13,3.1,12,7,14
2013/12/10 6:42,3,13,3,12,8.1,12
2013/12/10 6:43,3.3,14,3.3,12,9.5,13
2013/12/10 6:44,3.2,13,3.3,12,6.3,16
2013/12/10 6:45,3.2,13,3.2,12,9,12
2013/12/10 6:46,3.3,13,3.3,13,5.5,15
2013/12/10 6:47,3.4,13,3.4,13,5.4,13
2013/12/10 6:48,3.6,13,3.6,13,6.7,12
2013/12/10 6:49,3.6,13,3.7,13,3.8,14
2013/12/10 6:50,3.7,13,3.7,13,6.2,13
2013/12/10 6:51,3.9,13,3.9,13,6.1,12
2013/12/10 6:52,3.7,13,3.8,13,4.3,13
2013/12/10 6:53,3.2,13,3.6,13,2.5,16
2013/12/10 6:54,3.1,13,3.1,13,5.8,11
2013/12/10 6:55,3.1,13,3.1,13,6.2,12
2013/12/10 6:56,3,13,3.1,13,6,13
2013/12/10 6:57,2.9,13,3,13,4.4,14
2013/12/10 6:58,2.7,13,2.9,13,3.2,13
2013/12/10 6:59,2.9,13,2.9,13,6.9,13
2013/12/10 7:00,2.9,13,3,13,6.2,13
2013/12/10 7:01,2.7,13,2.8,13,4.3,15
2013/12/10 7:02,2.6,13,2.7,13,4.9,12
2013/12/10 7:03,2.9,13,2.9,13,9.7,12
2013/12/10 7:04,3.1,13,3.1,13,7.6,13
2013/12/10 7:05,3.1,13,3.2,13,7.6,10
2013/12/10 7:06,3.2,12,3.2,13,8.6,12
2013/12/10 7:07,3.4,12,3.4,12,6.5,13
2013/12/10 7:08,3.7,13,3.7,12,7.8,12
2013/12/10 7:09,3.6,13,3.7,12,6.4,9
2013/12/10 7:10,3.8,12,3.8,12,9,10
2013/12/10 7:11,4,12,4,12,7,11
2013/12/10 7:12,4.1,12,4.1,12,5.6,13
2013/12/10 7:13,3.8,12,4.1,12,4.2,15
2013/12/10 7:14,3.6,12,3.8,12,5.4,12
2013/12/10 7:15,3.7,12,3.7,12,7.6,13
2013/12/10 7:16,3.7,12,3.8,12,7.4,12
2013/12/10 7:17,3.6,12,3.7,12,5.6,12
2013/12/10 7:18,3.6,12,3.6,12,7.2,14
2013/12/10 7:19,3.6,12,3.7,12,7.1,11
2013/12/10 7:20,3.5,13,3.6,12,9.8,15
2013/12/10 7:21,3.3,13,3.5,12,7,15
2013/12/10 7:22,3.4,13,3.4,12,5.7,12
2013/12/10 7:23,3.6,13,3.6,12,7.2,14
2013/12/10 7:24,3.5,13,3.6,12,4.1,12
2013/12/10 7:25,3.3,13,3.5,12,4.9,1
2013/12/10 7:26,3.3,13,3.3,12,8.6,13
2013/12/10 7:27,3.4,13,3.4,12,7.5,13
2013/12/10 7:28,3.5,13,3.5,12,7.6,14
2013/12/10 7:29,3.5,13,3.6,13,7.2,13
2013/12/10 7:30,3.3,13,3.5,13,4.5,13
2013/12/10 7:31,3.4,13,3.4,13,5.1,14
2013/12/10 7:32,3.7,13,3.7,13,9.9,14
2013/12/10 7:33,3.9,13,3.9,13,9.7,12
2013/12/10 7:34,4.5,13,4.5,13,12.3,12
2013/12/10 7:35,4.8,13,4.9,13,10.8,13
2013/12/10 7:36,5,13,5,13,9.3,13
2013/12/10 7:37,5.1,13,5.1,13,7.9,13
2013/12/10 7:38,5.1,13,5.1,13,13.8,15
2013/12/10 7:39,5,13,5.1,13,7.4,13
2013/12/10 7:40,5,13,5.1,13,4.3,12
2013/12/10 7:41,5.1,13,5.1,13,7.6,12
2013/12/10 7:42,4.8,13,5.1,13,4.8,12
2013/12/10 7:43,4.6,13,4.8,13,5.1,12
2013/12/10 7:44,4.5,13,4.6,13,11,13
2013/12/10 7:45,4.3,13,4.5,13,9.3,11
2013/12/10 7:46,4.2,13,4.4,13,13.3,15
2013/12/10 7:47,4.2,13,4.3,13,8.2,13
2013/12/10 7:48,4,13,4.3,13,7.6,15
2013/12/10 7:49,4.1,13,4.1,13,7.4,13
2013/12/10 7:50,4.4,13,4.4,13,9.1,12
2013/12/10 7:51,4.5,13,4.5,13,9.2,12
2013/12/10 7:52,4.6,13,4.6,13,6.3,13
2013/12/10 7:53,4.6,13,4.6,13,7.1,12
2013/12/10 7:54,4.3,13,4.6,13,5.6,12
2013/12/10 7:55,4.3,13,4.3,13,6.4,11
2013/12/10 7:56,4,13,4.3,13,4.2,13
2013/12/10 7:57,3.9,13,4,13,6,12
2013/12/10 7:58,3.8,12,3.9,13,5.6,12
2013/12/10 7:59,3.8,12,3.8,13,8.7,11
2013/12/10 8:00,3.7,12,3.8,13,8.2,13
2013/12/10 8:01,3.5,12,3.7,13,7.6,12
2013/12/10 8:02,3.4,12,3.6,13,7,12
2013/12/10 8:03,3.6,12,3.6,13,6.9,12
2013/12/10 8:04,3.5,12,3.6,13,5.7,9
2013/12/10 8:05,3.4,12,3.5,13,4.7,9
2013/12/10 8:06,3.6,12,3.6,13,6.9,11
2013/12/10 8:07,3.5,12,3.6,13,6.5,10
2013/12/10 8:08,3.5,12,3.5,12,6.8,9
2013/12/10 8:09,3.4,12,3.6,12,4.3,9
2013/12/10 8:10,3.4,12,3.4,12,6.5,13
2013/12/10 8:11,3.3,12,3.3,12,5.1,13
2013/12/10 8:12,3.3,12,3.3,12,5,1
2013/12/10 8:13,3.2,12,3.4,12,8.9,16
2013/12/10 8:14,3.3,13,3.3,12,6.3,14
2013/12/10 8:15,3.4,12,3.4,12,8.3,12
2013/12/10 8:16,3.3,13,3.5,12,5.1,14
2013/12/10 8:17,3.3,13,3.3,12,4.1,16
2013/12/10 8:18,3.1,13,3.3,12,3.9,10
2013/12/10 8:19,3.3,13,3.3,12,7.6,12
2013/12/10 8:20,3.3,13,3.3,12,6.7,11
2013/12/10 8:21,3.2,12,3.3,12,5.5,11
2013/12/10 8:22,3.2,12,3.3,12,6.1,12
2013/12/10 8:23,2.9,12,3.2,12,2.9,12
2013/12/10 8:24,2.9,12,2.9,12,8.3,12
2013/12/10 8:25,3,12,3,12,9.5,11
2013/12/10 8:26,3.1,11,3.1,13,10.7,9
2013/12/10 8:27,3.5,11,3.5,11,9.9,11
2013/12/10 8:28,3.8,11,3.8,11,9.5,9
2013/12/10 8:29,3.8,11,3.8,11,9.4,10
2013/12/10 8:30,3.9,11,3.9,11,10.8,13
2013/12/10 8:31,4,11,4,11,7.1,10
2013/12/10 8:32,4.2,11,4.2,11,9.5,12
2013/12/10 8:33,4.6,11,4.6,11,7.2,13
2013/12/10 8:34,4.5,11,4.6,11,9.5,10
2013/12/10 8:35,4.3,11,4.5,11,8.4,11
2013/12/10 8:36,4.3,11,4.4,11,9.4,11
2013/12/10 8:37,4,11,4.3,11,4.1,9
2013/12/10 8:38,3.6,11,3.9,11,2,7
2013/12/10 8:39,3.5,12,3.6,11,8.2,13
2013/12/10 8:40,3.6,12,3.7,11,8.3,10
2013/12/10 8:41,3.7,11,3.7,11,8.6,13
2013/12/10 8:42,3.7,11,3.7,11,7.4,9
2013/12/10 8:43,3.6,11,3.7,11,7.7,10
2013/12/10 8:44,3.8,11,3.9,11,8.9,11
2013/12/10 8:45,3.6,11,3.8,11,4.4,10
2013/12/10 8:46,3.5,11,3.6,11,6.7,10
2013/12/10 8:47,3.8,11,3.8,11,12.2,10
2013/12/10 8:48,4.1,11,4.1,11,9.5,11
2013/12/10 8:49,4,11,4.1,11,7.7,9
2013/12/10 8:50,3.8,11,4,11,9,10
2013/12/10 8:51,4,11,4.1,11,9.4,10
2013/12/10 8:52,3.8,11,4,11,9.2,8
2013/12/10 8:53,4.1,11,4.1,11,9.9,12
2013/12/10 8:54,3.9,11,4.1,11,6.9,10
2013/12/10 8:55,4.2,11,4.2,11,8.1,10
2013/12/10 8:56,4.3,11,4.4,11,6.4,12
2013/12/10 8:57,3.9,11,4.3,11,3.2,15
2013/12/10 8:58,3.6,11,3.8,11,1,13
2013/12/10 8:59,3.4,11,3.6,11,5.8,10
2013/12/10 9:00,3.4,11,3.5,11,6.4,9
2013/12/10 9:01,3.2,11,3.4,11,8.9,8
2013/12/10 9:02,3.3,11,3.3,11,7.1,13
2013/12/10 9:03,3.2,11,3.2,11,9.1,13
2013/12/10 9:04,3.4,11,3.4,11,10.2,10
2013/12/10 9:05,3.1,11,3.4,11,3.1,5
2013/12/10 9:06,2.8,11,3,11,2.9,7
2013/12/10 9:07,2.8,10,2.9,11,1.5,12
2013/12/10 9:08,2.9,10,2.9,11,4.2,13
2013/12/10 9:09,3,10,3.1,11,5.7,10
2013/12/10 9:10,3.2,10,3.2,11,9.3,10
2013/12/10 9:11,3.2,10,3.3,11,7.1,11
2013/12/10 9:12,3.3,10,3.3,11,10.3,9
2013/12/10 9:13,3.1,10,3.4,11,10.3,9
2013/12/10 9:14,2.9,10,3.1,11,8.9,9
2013/12/10 9:15,3,10,3.1,10,5.5,11
2013/12/10 9:16,2.9,11,3,10,0.8,14
2013/12/10 9:17,2.9,11,2.9,10,1.4,15
2013/12/10 9:18,2.9,11,2.9,10,3.8,9
2013/12/10 9:19,2.8,11,2.9,10,4.1,10
2013/12/10 9:20,2.4,11,2.8,10,2.5,5
2013/12/10 9:21,2.2,11,2.4,10,4.7,8
2013/12/10 9:22,2.1,11,2.2,10,7.5,10
2013/12/10 9:23,2.1,11,2.1,10,7,9
2013/12/10 9:24,2.1,11,2.1,10,5.4,11
2013/12/10 9:25,2.2,11,2.2,10,5.8,12
2013/12/10 9:26,2.4,11,2.4,11,4.1,15
2013/12/10 9:27,2.7,11,2.7,11,6.1,16
2013/12/10 9:28,2.8,12,2.8,11,6.3,15
2013/12/10 9:29,3,13,3,13,7,1
2013/12/10 9:30,3.1,15,3.1,14,4.7,1
2013/12/10 9:31,3.2,15,3.2,15,6.2,16
2013/12/10 9:32,3.2,15,3.3,15,5.5,14
2013/12/10 9:33,3.1,15,3.2,15,3.5,14
2013/12/10 9:34,3.1,16,3.1,15,5.4,9
2013/12/10 9:35,2.9,16,3.1,15,5.1,9
2013/12/10 9:36,3,16,3,15,3.5,9
2013/12/10 9:37,2.8,15,3,15,2.7,7
2013/12/10 9:38,2.6,10,2.8,15,2.2,8
2013/12/10 9:39,2.3,9,2.6,15,2.7,9
2013/12/10 9:40,2.1,9,2.3,15,0.6,10
2013/12/10 9:41,1.8,9,2.1,15,1.4,9
2013/12/10 9:42,1.5,9,1.8,15,1.1,11
2013/12/10 9:43,1.4,8,1.5,15,0.8,6
2013/12/10 9:44,1.2,8,1.4,16,2.2,14
2013/12/10 9:45,1,8,1.2,16,0.9,3
2013/12/10 9:46,0.8,7,1,16,1.1,4
2013/12/10 9:47,0.7,6,0.8,14,1.8,3
2013/12/10 9:48,0.6,6,0.7,10,1.3,12
2013/12/10 9:49,0.6,6,0.6,9,2.4,6
2013/12/10 9:50,0.9,6,0.9,9,4.1,7
2013/12/10 9:51,1.1,5,1.1,9,4.7,6
2013/12/10 9:52,1.2,5,1.2,9,2.4,6
2013/12/10 9:53,1.3,6,1.3,8,3.1,9
2013/12/10 9:54,1.4,6,1.4,6,5.6,9
2013/12/10 9:55,1.6,7,1.6,7,4.9,10
2013/12/10 9:56,1.8,8,1.8,8,3.9,12
2013/12/10 9:57,1.8,8,1.8,8,1.9,8
2013/12/10 9:58,1.7,8,1.7,8,1.5,10
2013/12/10 9:59,1.8,7,1.8,8,2,5
2013/12/10 10:00,1.6,7,1.8,8,2.7,1
2013/12/10 10:01,1.4,7,1.6,8,2.6,6
2013/12/10 10:02,1.5,8,1.5,8,2.1,10
2013/12/10 10:03,1.5,8,1.5,8,2.7,9
2013/12/10 10:04,1.3,7,1.4,8,1.8,8
2013/12/10 10:05,1.3,7,1.3,8,3.3,7
2013/12/10 10:06,1.4,7,1.4,8,5.7,8
2013/12/10 10:07,1.6,7,1.6,8,4.2,8
2013/12/10 10:08,1.6,7,1.6,8,1.5,1
2013/12/10 10:09,1.6,8,1.6,7,2.9,9
2013/12/10 10:10,1.5,8,1.6,7,3,8
2013/12/10 10:11,1.6,8,1.6,7,3.6,1
2013/12/10 10:12,1.7,7,1.7,8,2.6,16
2013/12/10 10:13,1.7,6,1.7,8,3.2,5
2013/12/10 10:14,2,6,2,6,4.1,3
2013/12/10 10:15,2,5,2,6,4.9,4
2013/12/10 10:16,2.3,4,2.3,4,13.3,2
2013/12/10 10:17,2.7,3,2.7,3,13.5,1
2013/12/10 10:18,3,3,3,3,6.7,14
2013/12/10 10:19,3.2,3,3.2,3,7.8,9
2013/12/10 10:20,3.2,3,3.2,3,5.4,8
2013/12/10 10:21,3.1,3,3.2,3,1.9,14
2013/12/10 10:22,3.1,5,3.1,3,4.5,8
2013/12/10 10:23,3.3,6,3.3,6,4.9,7
2013/12/10 10:24,3.4,8,3.4,7,5.5,7
2013/12/10 10:25,3.6,8,3.6,8,5.4,8
2013/12/10 10:26,3.3,9,3.6,8,6.8,9
2013/12/10 10:27,3,9,3.2,8,6,7
2013/12/10 10:28,2.9,8,3,8,6,8
2013/12/10 10:29,2.9,8,3,8,3.9,2
2013/12/10 10:30,2.9,8,2.9,8,5,1
2013/12/10 10:31,3,7,3,8,3.5,3
2013/12/10 10:32,3,7,3,8,4.3,16
2013/12/10 10:33,2.9,6,3,8,6.2,3
2013/12/10 10:34,2.8,5,2.9,8,5.4,4
2013/12/10 10:35,2.6,4,2.8,9,3.7,14
2013/12/10 10:36,2.4,3,2.5,9,3.6,15
2013/12/10 10:37,2.3,2,2.4,9,4.8,14
2013/12/10 10:38,2.2,1,2.3,8,5,13
2013/12/10 10:39,2.5,1,2.5,8,8.5,2
2013/12/10 10:40,2.6,1,2.6,8,4.1,3
2013/12/10 10:41,2.8,1,2.8,7,10.6,15
2013/12/10 10:42,2.9,16,2.9,7,7.8,16
2013/12/10 10:43,2.8,16,2.9,6,3.7,14
2013/12/10 10:44,2.7,16,2.8,1,3.3,15
2013/12/10 10:45,2.7,15,2.7,1,2.4,12
2013/12/10 10:46,2.5,15,2.7,1,0.8,13
2013/12/10 10:47,2.4,16,2.5,1,1,3
2013/12/10 10:48,2.3,16,2.4,1,3,3
2013/12/10 10:49,2,16,2.3,1,5,2
2013/12/10 10:50,2.2,1,2.2,1,7.2,2
2013/12/10 10:51,2.3,1,2.3,1,8.4,15
2013/12/10 10:52,2.4,1,2.4,1,10.3,16
2013/12/10 10:53,2.9,16,2.9,16,11.3,16
2013/12/10 10:54,3,1,3.1,1,9.2,16
2013/12/10 10:55,3.4,1,3.4,1,8.9,15
2013/12/10 10:56,4,1,4,1,10.9,15